Regional Weather Roundup
Issued by NWS

Home | Current Version | Previous Version | Text Only | Print | Product List | Glossary Off
Versions: 1 2 3 4 5 6 7 8 9 10 11 12 13 14 15 16 17 18 19 20 21 22 23 24 25 26 27 28 29 30 31 32 33 34 35 36 37 38 39 40 41 42 43 44 45 46 47 48 49 50

000
ASUS46 KLOX 020502
RWRCA

SOUTHERN CALIFORNIA WEATHER ROUNDUP
NATIONAL WEATHER SERVICE OXNARD CALIFORNIA
1000 PM PDT WED OCT 01 2014

NOTE: "FAIR" INDICATES FEW OR NO CLOUDS BELOW 12,000 FEET WITH NO
SIGNIFICANT WEATHER AND/OR OBSTRUCTIONS TO VISIBILITY.

  -  STATIONS PRECEEDED BY AN ASTERISK (*) ARE NOT NWS OR FAA
     STATIONS AND ARE NOT SUBJECT TO NWS AND FAA QUALITY CONTROL.

CAZ041-042-087-020600-
LA AND ORANGE COUNTY COASTAL AREAS


CITY           SKY/WX    TMP DP  RH WIND       PRES   REMARKS
L.A. DOWNTOWN  CLEAR     68  62  81 CALM      29.86R
L.A. AIRPORT   CLEAR     67  63  87 SW5       29.87R
LONG BEACH     CLEAR     69  63  81 CALM      29.86R

CITY           SKY/WX    TMP DP  RH WIND       PRES   REMARKS
AVALON           N/A     63 N/A N/A S2          N/A
FULLERTON      CLEAR     71  62  73 S3        29.86R
*GETTY CENTER    N/A     63  59  88 NE2         N/A
HAWTHORNE      CLEAR     68  64  87 CALM      29.87R
*LEO CARRILLO    N/A     67  63  87 E7          N/A
*LOS ALAMITOS  CLEAR     67  63  87 S2        29.87R
*REDONDO BEACH   N/A     66  61  86 CALM      29.85S
SANTA ANA      CLEAR     71  63  75 VRB3      29.87R
STA MONICA APT CLOUDY    68  63  84 VRB3      29.87R
*STA MON PIER    N/A     67  64  91 SW1       29.86R
*UCLA            N/A     64  61  88 CALM      29.85R

$$

CAZ547-548-048-020600-
LA COUNTY VALLEYS AND INLAND EMPIRE


CITY           SKY/WX    TMP DP  RH WIND       PRES   REMARKS
BURBANK        CLEAR     70  60  70 E6        29.87R
VAN NUYS       CLEAR     71  58  63 E3        29.87R

CITY           SKY/WX    TMP DP  RH WIND       PRES   REMARKS
CORONA AIRPORT CLEAR     65  58  78 CALM      29.88R
*CHATSWORTH      N/A     70  56  61 CALM      29.83R
CHINO          CLEAR     65  59  81 CALM      29.89R
*CLAREMONT       N/A     64  45  49 CALM        N/A
MARCH AFB      CLEAR     66  55  67 CALM      29.91R
*NORTHRIDGE      N/A     70  55  60 CALM        N/A
ONTARIO        CLEAR     71  59  65 S5        29.88R
*PASADENA        N/A     70  59  68 CALM        N/A
RIVERSIDE      CLEAR     73  58  59 CALM      29.88R
SAN BERNARDINO NOT AVBL
*SAN GABRIEL     N/A     70  61  71 CALM      29.83R
*SAUGUS          N/A     77  32  19 NE10        N/A
*WHITEMAN AP   NOT AVBL
*WHITTIER HILL   N/A     65  62  90 S3          N/A
*WOODLAND HILL   N/A     68  54  60 S1          N/A

$$

CAZ054-055-020600-
LA AND SAN BERNARDINO COUNTY MOUNTAINS


CITY           SKY/WX    TMP DP  RH WIND       PRES   REMARKS
*ACTON           N/A     75  27  17 NE7G20      N/A
*BIG BEAR AIRP CLEAR     43  27  52 CALM      30.22R
*BIG PINES       N/A     53  27  36 CALM        N/A
MT WILSON NWS    N/A     61  25  25 MISG        N/A
SANDBERG       CLEAR     68  29  23 NE7       30.11R

$$

CAZ028-029-059-060-099-020600-
ANTELOPE VALLEY AND SURROUNDING AREAS


CITY           SKY/WX    TMP DP  RH WIND       PRES   REMARKS
LANCASTER      CLEAR     62  28  27 NE5       29.99R
PALMDALE       CLEAR     68  29  23 SE12      30.00R
*POPPY PARK      N/A     67  28  23 N7          N/A

CITY           SKY/WX    TMP DP  RH WIND       PRES   REMARKS
29 PALMS       CLEAR     75  31  19 W8        30.02R
BARSTOW/DAGGET CLEAR     77  14   9 VRB3      29.98R
BISHOP         CLEAR     56  17  21 NW6       30.13R
CHINA LAKE     CLEAR     68  22  17 S9        29.99R
EDWARDS AFB    CLEAR     70  18  13 E7        29.97R
MOJAVE         FAIR      68  23  18 N9        30.02R
NEEDLES        CLEAR     81  26  13 N10       29.91R
VICTORVILLE    CLEAR     70  23  17 NE7       30.02R

$$

CAZ039-040-020600-
VENTURA AND SANTA BARBARA COUNTY COAST


CITY           SKY/WX    TMP DP  RH WIND       PRES   REMARKS
CAMARILLO      CLEAR     65  60  84 NE3       29.85R
NWS OXNARD       N/A     65  60  82 CALM      29.84R
OXNARD AIRPORT CLEAR     66  63  90 CALM      29.84R
*POINT MUGU    CLEAR     67  61  81 CALM      29.85R
SBA APT/GOLETA CLEAR     62  60  93 CALM      29.83S
*SANTA BARBARA   N/A     69  62  77 CALM      29.91S
*VENTURA         N/A     65  60  81 CALM      29.87S

$$

CAZ044-045-020600-
VENTURA COUNTY VALLEYS


CITY           SKY/WX    TMP DP  RH WIND       PRES   REMARKS
*SIMI VALLEY     N/A     65  57  76 CALM      29.81S
*OJAI            N/A     61  53  74 CALM      29.81R
*FILLMORE        N/A     64  57  78 CALM      29.76S

$$

CAZ053-020600-
VENTURA COUNTY MOUNTAINS


CITY           SKY/WX    TMP DP  RH WIND       PRES   REMARKS
*LOCKWOOD VLY    N/A     54  28  37 MISG        N/A
*ROSE VALLEY     N/A     54  30  40 MISG        N/A

$$

CAZ034-035-036-020600-
CENTRAL COAST AND SANTA YNEZ VALLEY


CITY           SKY/WX    TMP DP  RH WIND       PRES   REMARKS
SAN LUIS OBISP CLEAR     68  47  46 CALM      29.87R
SANTA MARIA    CLEAR     67  47  48 S5        29.87R

CITY           SKY/WX    TMP DP  RH WIND       PRES   REMARKS
*CAL POLY SLO    N/A     81  50  34 NE12        N/A
*LOMPOC        CLEAR     61  46  59 E5        29.87F
*PISMO BEACH     N/A     70  46  41 NE3       29.86R
*SANTA YNEZ    FAIR      63  45  51 E3        29.89R

$$

CAZ037-038-051-020600-
SAN LUIS OBISPO COUNTY INTERIOR AND CUYAMA VALLEY


CITY           SKY/WX    TMP DP  RH WIND       PRES   REMARKS
*CUYAMA          N/A     64  43  46 NE1       29.92R
PASO ROBLES    CLEAR     69  38  32 CALM      29.92R

$$

CAZ032-033-061-020600-
SOUTHERN DESERTS


CITY           SKY/WX    TMP DP  RH WIND       PRES   REMARKS
BLYTHE         CLEAR     82  38  20 NW9       29.83R
IMPERIAL       CLEAR     79  41  25 W5        29.78R
PALM SPRINGS   CLEAR     88  34  14 W7        29.86R
THERMAL        CLEAR     74  52  46 N3        29.79R

$$

ELSEWHERE ACROSS THE WESTERN UNITED STATES AND MEXICO


CITY           SKY/WX    TMP DP  RH WIND       PRES   REMARKS
DENVER, CO     LGT RAIN  43  40  89 W12       30.08R
GRAND CANYON,  CLEAR     39  31  72 CALM      30.17R HAZE
HONOLULU, HI   PTCLDY    81  69  67 NE5       29.91R
KAHULUI, MAUI  PTCLDY    81  72  74 NE18      29.90R
LAKE TAHOE, CA CLEAR     39  30  70 CALM      30.24R
LAS VEGAS, NV  CLEAR     72  31  22 N10       30.00R
MAMMOTH LAKES, FAIR      43  12  28 W5        30.28R
MEXICO CITY, M MOCLDY    64  54  68 SE6       30.26R
PHOENIX, AZ    CLEAR     80  47  31 CALM      29.82R
PORTLAND, OR   PTCLDY    58  50  75 CALM      30.20R
RENO, NV       CLEAR     53  30  41 CALM      30.22R
SALT LAKE CITY CLEAR     46  37  71 SE7       30.21R
SAN DIEGO, CA  PTCLDY    70  62  76 CALM      29.87R
SAN FRANCISCO, CLEAR     72  42  34 W5        29.92R
SAN JOSE, CA   CLEAR     67  44  43 CALM      29.93R
SEATTLE, WA    MOCLDY    59  46  62 NE9       30.20R
TIJUANA, MEX   CLEAR     66  59  77 CALM      29.88S

$$

STATION/POSITION TIME  TEMP    WIND        PRES    VSBY  WAVE
                       AIR SEA DIR/SP/G                  HT/PER
                 (UTC) (F)     (DEG/KT/KT) (MB)    (MI)  (FT/S)
POINT ARGUELLO B NOT AVBL
WEST SANTA BARBA 0400   68 64  320/ 12/ 14 1008.6R         8/11
POINT CONCEPTION NOT AVBL
EAST SANTA BARBA 0400   65 67  200/  4     1010.1
SANTA MONICA BAY 0400   67 70  220/  4/  6 1010.4R         3/11


USA.gov is the U.S. government's official web portal to all federal, state and local government web resources and services.